654  
ASUS41 KCLE 240312  
RWRCLE  
OHIO REGIONAL WEATHER ROUNDUP  
NATIONAL WEATHER SERVICE WILMINGTON, OH  
1000 PM EST TUE JAN 23 2018  
 
NOTE: "FAIR" INDICATES FEW OR NO CLOUDS BELOW 12,000 FEET WITH NO  
SIGNIFICANT WEATHER AND/OR S TO VISIBILITY
.  
 
OHZ001>008-015>018-024>027-034-035-043-044-240400-  
NORTHWEST OHIO  
 
CITY SKY/WX TMP DP RH WIND PRES REMARKS
 
DEFIANCE CLOUDY 31 25 78 NW10G21 30.01R WCI 22  
FINDLAY CLOUDY 32 25 75 W15 29.99R WCI 22  
TOLEDO EXPRESS CLOUDY 32 28 85 NW10 29.97R WCI 24  
TOLEDO EXEC CLOUDY 32 27 81 W14 29.98R WCI 22  
LIMA CLOUDY 31 27 85 W17 30.01R WCI 19  

 
 
OHZ009>014-019>023-028>033-038-089-240400-  
NORTHEAST OHIO  
 
CITY SKY/WX TMP DP RH WIND PRES REMARKS
 
CLE-HOPKINS FLURRIES 33 27 78 W20G33 29.96R WCI 21  
CLE-LAKEFRONT CLOUDY 33 27 78 W23G32 29.93R WCI 21  
CUY CO. ARPT CLOUDY 34 28 80 W23G29 29.92R WCI 22  
LORAIN-ELYRIA CLOUDY 32 23 69 W17G23 29.95R WCI 21  
ASHTABULA LGT SNOW 31 29 92 W18G29 29.89R FOG WCI 19  
AKRON-CANTON CLOUDY 33 27 78 W17G23 29.93R WCI 22  
WOOSTER CLOUDY 32 27 81 W20G28 29.95R WCI 20  
MANSFIELD CLOUDY 31 27 85 W14G23 29.95R WCI 21  
YOUNGSTOWN FLURRIES 33 28 81 W18G28 29.89R WCI 22  

 
 
OHZ042-051>053-060>062-070>072-077>081-240400-  
SOUTHWEST OHIO  
 
CITY SKY/WX TMP DP RH WIND PRES REMARKS
 
CINC-COVINGTON FLURRIES 33 32 96 W13 30.09R WCI 24  
CINC-LUNKEN CLOUDY 36 31 82 W10 30.11R  
HAMILTON CLOUDY 34 32 92 W10 30.10R WCI 26  
DAYTON CLOUDY 32 30 92 W17 30.06R WCI 21  
WRIGHT-PAT AFB FLURRIES 33 29 86 W16 30.05R WCI 23  
DAYTON GENERAL CLOUDY 33 29 85 W12 30.05R WCI 24  
WILMINGTON FLURRIES 33 33 100 W18 30.04R WCI 22  

 
 
OHZ036-037-039>041-045>050-054>059-063>069-073>076-082>088-240400-  
CENTRAL AND SOUTHEAST OHIO  
 
CITY SKY/WX TMP DP RH WIND PRES REMARKS
 
COLUMBUS CLOUDY 36 31 82 W15 30.01R  
OSU AIRPORT CLOUDY 34 30 85 W20G26 30.01R WCI 23  
BOLTON FIELD CLOUDY 34 31 88 W12G17 30.02R WCI 25  
RICKENBACK AFB CLOUDY 35 32 90 W13G18 30.02R WCI 26  
NEWARK CLOUDY 36 29 75 W9 30.00R  
MARION CLOUDY 32 26 78 W14G22 30.00R WCI 22  
LANCASTER CLOUDY 36 32 85 W9 30.01R  
ZANESVILLE CLOUDY 37 28 70 W14G24 29.99R  
NEW PHILLY CLOUDY 35 29 78 W12G22 29.97R WCI 27  

 
 
 
CLICK HERE TO GO TO PREVIOUS BULLETINS.

The Nexlab OH Page
The Nexlab PA Page Main Text Page